PROPCUBE 3

Last updated on Wed Nov 05 2025 00:03:48 GMT+0000 (Coordinated Universal Time)

1 40973U 15058K 25308.19501727 .00003715 00000+0 31901-3 0 9994 2 40973 64.7693 234.4838 0135785 148.3294 212.6081 14.92170147 81209
UTC large
Height (km)
Speed (km/s)
/
Latitude / Longitude
Inclination (degrees)
Orbital Period (minutes)
Azimuth
Elevation
Range (km)
Doppler Factor

Next 0 passes for location: London (51.5072 / 0.1276)

Sorry there are no passes over London.